Location: Alando
(42.3054°N, 9.2895°E)
Time: 08:22:49
(UTC+00:00)

COSMOS 2455 - Pass Details

Date: 09 April 2020
Orbit: 899 x 910 km, 67.1° (Epoch: 05 June)

Event Time Altitude Azimuth Distance (km) Brightness Sun altitude
Rises 18:17:00 0° 336° (NNW) 3,544 6.6 -4.2°
Reaches altitude 10° 18:19:54 10° 348° (NNW) 2,600 5.6 -4.8°
Maximum altitude 18:25:02 28° 46° (NE) 1,631 4.0 -5.7°
Drops below altitude 10° 18:30:10 10° 105° (ESE) 2,593 4.5 -6.6°
Enters shadow 18:30:45 - 108° (ESE) 2,774 4.7 -6.7°
